Regional Weather Roundup
Issued by NWS

Home | Current Version | Previous Version | Graphics & Text | Print | Product List | Glossary On
Versions: 1 2 3 4 5 6 7 8 9 10 11 12 13 14 15 16 17 18 19 20 21 22 23 24 25 26 27 28 29 30 31 32 33 34 35 36 37 38 39 40 41 42 43 44 45 46 47 48 49 50
000
ASUS43 KLOT 040100
RWRIL

ILLINOIS REGIONAL WEATHER ROUNDUP
NATIONAL WEATHER SERVICE CHICAGO/ROMEOVILLE IL
800 PM CDT FRI JUL 03 2015

NOTE: "FAIR" INDICATES FEW OR NO CLOUDS BELOW 12,000 FEET WITH NO
SIGNIFICANT WEATHER AND/OR OBSTRUCTIONS TO VISIBILITY.

* THESE STATIONS ARE NOT UNDER NWS QUALITY CONTROL. THEY ALSO MAY NOT
  REPORT WEATHER SUCH AS PRECIPITATION OR FOG.

ILZ001-002-007-009-015-016-024-040200-
NORTHWEST ILLINOIS

CITY           SKY/WX    TMP DP  RH WIND       PRES   REMARKS
MOLINE         CLEAR     73  61  65 CALM      29.92S
STERLING*      CLEAR     72  61  68 NW5       29.93S
$$

ILZ003-004-008-010-011-017-018-040200-
NORTH CENTRAL ILLINOIS

CITY           SKY/WX    TMP DP  RH WIND       PRES   REMARKS
ROCKFORD       PTCLDY    73  58  59 W5        29.93F
$$

ILZ005-006-012>014-019>023-040200-
NORTHEAST ILLINOIS

CITY           SKY/WX    TMP DP  RH WIND       PRES   REMARKS
CHICAGO-OHARE  MOCLDY    70  49  47 E7        29.91S
CHICAGO-MIDWAY MOCLDY    71  53  52 E8        29.92S
AURORA         CLEAR     73  61  65 NW3       29.92S
WAUKEGAN       CLEAR     64  55  72 SE3       29.91F
DUPAGE AIRPORT PTCLDY    72  55  55 E5        29.91S
WHEELING       CLEAR     68  52  56 E5        29.93F
NORTHERLY ISL    N/A     64  57  78 NE2         N/A
$$

LMZ740>746-040200-
SOUTHERN LAKE MICHIGAN

STATION/POSITION SKY/WX   TEMP    WIND        PRES    VSBY  WAVE
                          AIR SEA DIR/SP/G                  HT/PER
                          (F)     (DEG/KT/KT) (MB)    (MI)  (FT/S)
HARRISON CRIB              63      60/  7/  8   N/A
BURNHAM HARBOR             65      40/  3/  5   N/A
CALUMET HARBOR             65      50/  4/  5   N/A
BURNS HARBOR               66      40/  7/  8 1014.2R
MICHIGAN CITY              63      20/  5/  5   N/A
MICHIGAN CITY 6N           64 65   40/  6/  6   N/A           1/ 2
ST. JOSEPH                 63 63                N/A           1/ 2
$$

ILZ025>027-034>036-040-047-049-050-058-095>099-040200-
WEST-CENTRAL ILLINOIS

CITY           SKY/WX    TMP DP  RH WIND       PRES   REMARKS
QUINCY         CLEAR     74  63  68 N5        29.92R
$$

ILZ028>032-037-038-041>044-048-051>054-059>061-040200-
CENTRAL ILLINOIS

CITY           SKY/WX    TMP DP  RH WIND       PRES   REMARKS
DECATUR        CLEAR     71  65  81 NE5       29.91R
PEORIA         CLEAR     76  59  55 N3        29.91S
SPRINGFIELD    CLEAR     76  65  68 NE5       29.90S
TAYLORVILLE    NOT AVBL
$$

ILZ033-039-045-046-055>057-062-063-040200-
EAST-CENTRAL ILLINOIS

CITY           SKY/WX    TMP DP  RH WIND       PRES   REMARKS
CHAMPAIGN      CLEAR     71  62  73 N3        29.91S
MATTOON        CLEAR     72  65  78 N8        29.89R
$$

ILZ079-100>102-040200-
SOUTHWEST ILLINOIS

CITY           SKY/WX    TMP DP  RH WIND       PRES   REMARKS
BELLEVILLE     CLEAR     76  69  79 N2        29.88R
CAHOKIA*       PTCLDY    78  67  68 NE8       29.89R HX  80
$$

ILZ064>066-069>071-074>076-080>082-084>086-088>090-092>094-040200-
SOUTH-CENTRAL ILLINOIS

CITY           SKY/WX    TMP DP  RH WIND       PRES   REMARKS
CARBONDALE     PTCLDY    78  66  66 CALM      29.88R HX  80
MT. VERNON     CLOUDY    73  64  73 CALM      29.89S
$$

ILZ067-068-072-073-078-083-087-091-040200-
SOUTHEAST ILLINOIS

CITY           SKY/WX    TMP DP  RH WIND       PRES   REMARKS
LAWRENCEVILLE  MOCLDY    74  68  81 NE6       29.88S
$$

ABBREVIATIONS USED IN REMARKS
   TC - TEMPERATURE IN CELSIUS
  WCI - WIND CHILL INDEX
   HX - HEAT INDEX
  VSB - VISIBILITY
$$




USA.gov is the U.S. government's official web portal to all federal, state and local government web resources and services.